Regional Weather Roundup
Issued by NWS Charleston, SC

Current Version | Previous Version | Graphics & Text | Print | Product List | Glossary On
Versions: 1 2 3 4 5 6 7 8 9 10 11 12 13 14 15 16 17 18 19 20 21 22 23 24 25 26 27 28 29 30 31 32 33 34 35 36 37 38 39 40 41 42 43 44 45 46 47 48 49 50
000
ASUS42 KCHS 020112
RWRCHS
REGIONAL WEATHER ROUNDUP
NATIONAL WEATHER SERVICE CHARLESTON SC
900 PM EDT TUE SEP 01 2015

NOTE: "FAIR" INDICATES FEW OR NO CLOUDS BELOW 12,000 FEET WITH NO
SIGNIFICANT WEATHER AND/OR OBSTRUCTIONS TO VISIBILITY.

NOT ALL STATIONS ARE QUALITY CONTROLLED BY THE NATIONAL
WEATHER SERVICE. USE DATA WITH CAUTION...ESPECIALLY
DEWPOINT OBSERVATIONS.

SCZ027-030-031-034>040-042>050-020200-
...SOUTHEAST SOUTH CAROLINA...

CITY           SKY/WX    TMP DP  RH WIND       PRES   REMARKS
N CHARLESTON   CLOUDY    81  74  79 S5        30.08R
WATERFRONT PRK   N/A     82  76  82 S6        30.04S
MOUNT PLEASANT LGT RAIN  79  75  89 CALM      30.08R
JOHNS ISLAND   MOCLDY    81  77  89 SE3       30.08R
PINOPOLIS        N/A     82  73  74 VRB3      29.99F
MONCKS CORNER  FAIR      79  73  83 CALM      30.08R
SUMMERVILLE    FAIR      79  77  94 CALM      30.08S
BEAUFORT MCAS  MOCLDY    80  76  87 CALM      30.08R
BEAUFORT ARPT  FAIR      79  77  94 CALM      30.07R
HILTON HEAD IS MOCLDY    79  75  89 CALM      30.09R
WALTERBORO     MOCLDY    81  73  78 CALM      30.08S
ALLENDALE      MOCLDY    81  73  78 CALM      30.07R

...SOUTHERN MIDLANDS AND PEE DEE...

CITY           SKY/WX    TMP DP  RH WIND       PRES   REMARKS
GEORGETOWN     NOT AVBL
KINGSTREE      NOT AVBL
ORANGEBURG     MOCLDY    79  72  79 S5        30.07R
BARNWELL       FAIR      82  73  74 CALM      30.08R
AIKEN          FAIR      79  66  65 CALM      30.11S
MANNING        FAIR      75  68  78 CALM      30.08R
COLUMBIA       PTCLDY    82  70  66 W3        30.07R
SUMTER         PTCLDY    81  71  72 S3        30.05R
FLORENCE       PTCLDY    81  72  74 CALM      30.06R
MYRTLE BEACH   CLEAR     81  70  69 S6        30.09R
N MYRTLE BEACH PTCLDY    80  72  76 SW7       30.07R

$$

GAZ063-065-086>088-099>101-113>116-118-119-134>141-150-020200-
...SOUTHEAST GEORGIA...

CITY           SKY/WX    TMP DP  RH WIND       PRES   REMARKS
SAVANNAH ARPT  CLOUDY    80  74  81 SE6       30.07S
HUNTER AAF     MOCLDY    80  79  97 E1        30.05R
FORT STEWART   CLOUDY    78  75  90 CALM      30.05R
STATESBORO     CLOUDY    81  78  90 SE3       30.07S
SYLVANIA       MOCLDY    81  78  90 CALM      30.08S
CLAXTON        NOT AVBL

...CSRA...CENTRAL AND FAR SOUTHEAST GEORGIA...

CITY           SKY/WX    TMP DP  RH WIND       PRES   REMARKS
THOMSON        CLEAR     77  75  93 CALM      30.12S
AUGUSTA-BUSH   PTCLDY    75  72  90 CALM      30.06R
AUGUSTA-DANIEL PTCLDY    84  69  60 CALM      30.08R
SWAINSBORO     CLOUDY    82  70  65 SE3       30.08R
VIDALIA        CLOUDY    79  73  83 CALM      30.07S
EASTMAN        CLOUDY    79  78  98 CALM      30.08R
HAZLEHURST     CLOUDY    82  76  82 SE3       30.06R
ALMA           CLOUDY    79  75  87 E3        30.06S
WAYCROSS       CLOUDY    80  79  96 E3        30.07R
JESUP          MOCLDY    81  79  94 CALM      30.08R
BAXLEY         CLOUDY    81  77  89 SE3       30.07R
BRUNSWICK      CLOUDY    77  75  94 CALM      30.07S
SAINT SIMONS   CLOUDY    79  76  90 NE3       30.06S

$$

SCZ027-028-034-036>038-045-046-048>050-GAZ119-141-020200-
...LAKE AND SUPPLEMENTAL COASTAL OBSERVATIONS...

STATION/POSITION TIME  TEMP    WIND        PRES    WAVE   SWELL
                       AIR SEA DIR/SP/G            HT/PER HT/PER/DIR
                 (UTC) (F)     (DEG/KT/KT) (MB)    (FT/S) (FT/S/D)
UPR LAKE MARION  NOT AVBL
WINYAH BAY       2345   81     210/  4     1017.0
LAKE MURRAY      0000   83        CALM     1017.3R
ACE BASIN NERRS  NOT AVBL
FORT PULASKI     0000   80 83  110/  5/  7 1018.4F
SAPELO ISLAND    0000   79        CALM     1018.0S

$$

ANZ835-935-AMZ111-154-330-350-352-354-370-450-454-472-020200-
...C-MAN AND BUOY OBSERVATIONS...

STATION/POSITION TIME  TEMP    WIND        PRES    WAVE   SWELL
                       AIR SEA DIR/SP/G            HT/PER HT/PER/DIR
                 (UTC) (F)     (DEG/KT/KT) (MB)    (FT/S) (FT/S/D)
BUOY 41004       0050   82 83  140/  6/  8 1018.1R   2/ 6   2/ 6
BUOY 41008       0050   81 84  140/  6/  8 1018.2R   2/ 8   2/110/ 8
FOLLY BEACH CMAN 0000   82     160/  9/ 10 1018.3S
CAPERS NEARSHORE 0008   82     170/ 10/ 12 1018.2S
FRIPP NEARSHORE  0000   81     160/ 10/ 10 1017.8F


STATION/POSITION TIME  TEMP    WIND        PRES    WAVE   SWELL
                       AIR SEA DIR/SP/G            HT/PER HT/PER/DIR
                 (UTC) (F)     (DEG/KT/KT) (MB)    (FT/S) (FT/S/D)
5E ST. MARYS GA  0021      86                N/A     2/ 7
FRYING PAN BUOY  0050   81 82  200/  6/  8 1018.6R   1/10   2/110/10
BUOY 41025       0050   80 83  360/  2/  4 1017.9R   2/ 9   2/ 90/ 9
CAPE LOOKOUT NC  0000   79     220/  6/  7 1017.3R
BUOY 41002       0050   84 85  260/  6/ 10 1018.5R   3/ 6   3/210/ 6
BUOY 41010       0020   85 87   CALM  /  2 1018.8R
ST AUGUSTINE FL  0100   83 84  210/  3/  4 1018.6R


$$



USA.gov is the U.S. government's official web portal to all federal, state and local government web resources and services.